Weather History for Ukiah, CA

Change the Weather History Date:

Tuesday, December 4, 2012

  Actual Average Record
Temperature  
Mean Temperature 52 °F 46 °F  
Max Temperature 54 °F 56 °F 77 °F (1958)
Min Temperature 49 °F 36 °F 22 °F (1936)
Degree Days  
Heating Degree Days 13 19  
Month to date heating degree days 50 74  
Since 1 July heating degree days 493 697  
Cooling Degree Days 0 0  
Month to date cooling degree days 0 0  
Year to date cooling degree days 983 835  
Moisture  
Dew Point 49 °F    
Average Humidity 87    
Maximum Humidity 96    
Minimum Humidity 77    
Precipitation  
Precipitation 0.93 in 0.16 in 2.22 in (1945)
Month to date precipitation 4.40 0.60  
Year to date precipitation 33.24 31.00  
Since 1 July precipitation 14.32 7.62  
Snow  
Snow 0.00 in - - ()
Month to date snowfall 0.0  
Since 1 July snowfall 0.0  
Snow Depth 0.00 in    
Sea Level Pressure  
Sea Level Pressure 30.15 in    
Wind  
Wind Speed 5 mph (SSE)    
Max Wind Speed 14 mph    
Max Gust Speed 18 mph    
Visibility 7 miles    
Events Rain    
T = Trace of Precipitation, MM = Missing Value Source: NWS Daily Summary

Daily Weather History Graph

Daily Weather History Graph

Search for Another Location

Airport:

Trip Planner

Search our weather history database for the weather conditions in past years. The results will help you decide how hot, cold, wet, or windy it might be!

Date:

Astronomy

Dec. 04, 2012 Rise Set
Actual Time 7:16 AM PST 4:50 PM PST
Civil Twilight 6:46 AM PST 5:19 PM PST
Nautical Twilight 6:13 AM PST 5:53 PM PST
Astronomical Twilight 5:41 AM PST 6:25 PM PST
Moon 10:41 PM PST (12/4) 11:14 AM PST (12/4)
Length of Visible Light 10h 33m
Length of Day
9h 33m
Waning Gibbous, 68% of the Moon is Illuminated
Dec 4
Waning Gibbous
Dec 6
Last Quarter
Dec 13
New
Dec 19
First Quarter
Dec 28
Full

Hourly Weather History & Observations

Time (PST) Temp. Dew Point Humidity Pressure Visibility Wind Dir Wind Speed Gust Speed Precip Events Conditions
12:56 AM 53.1 °F 46.9 °F 80% 30.16 in 10.0 mi Calm Calm - N/A   Overcast
1:56 AM 52.0 °F 48.0 °F 86% 30.16 in 10.0 mi Calm Calm - N/A   Overcast
2:56 AM 52.0 °F 48.0 °F 86% 30.17 in 10.0 mi Calm Calm - 0.00 in   Overcast
3:56 AM 53.1 °F 46.9 °F 80% 30.15 in 10.0 mi SSE 3.5 mph - N/A   Overcast
4:56 AM 52.0 °F 48.0 °F 86% 30.16 in 10.0 mi NW 5.8 mph - 0.01 in Rain Light Rain
5:56 AM 51.1 °F 48.9 °F 92% 30.17 in 10.0 mi Calm Calm - 0.01 in   Overcast
6:56 AM 50.0 °F 46.9 °F 89% 30.18 in 10.0 mi NW 4.6 mph - 0.00 in Rain Light Rain
7:56 AM 50.0 °F 46.9 °F 89% 30.19 in 10.0 mi Calm Calm - 0.01 in Rain Light Rain
8:22 AM 50.0 °F 46.4 °F 87% 30.20 in 5.0 mi Calm Calm - 0.04 in Rain Light Rain
8:56 AM 48.9 °F 46.9 °F 93% 30.20 in 5.0 mi Calm Calm - 0.06 in Rain Rain
9:56 AM 50.0 °F 48.0 °F 93% 30.19 in 10.0 mi Calm Calm - 0.03 in Rain Light Rain
10:56 AM 52.0 °F 48.0 °F 86% 30.20 in 3.0 mi SSE 6.9 mph - 0.04 in Rain Heavy Rain
11:56 AM 52.0 °F 48.0 °F 86% 30.18 in 10.0 mi SSE 10.4 mph - 0.00 in   Overcast
12:56 PM 52.0 °F 46.9 °F 83% 30.16 in 7.0 mi South 11.5 mph 18.4 mph 0.00 in Rain Light Rain
1:56 PM 52.0 °F 46.9 °F 83% 30.14 in 10.0 mi South 8.1 mph 17.3 mph 0.01 in Rain Light Rain
2:56 PM 52.0 °F 48.0 °F 86% 30.13 in 10.0 mi SSE 5.8 mph - 0.03 in   Overcast
3:27 PM 51.8 °F 48.2 °F 88% 30.15 in 9.0 mi South 4.6 mph - 0.01 in   Overcast
3:56 PM 51.1 °F 48.9 °F 92% 30.14 in 4.0 mi SSE 5.8 mph - 0.02 in Rain Light Rain
4:07 PM 51.8 °F 48.2 °F 88% 30.15 in 2.5 mi South 5.8 mph - 0.01 in Rain Light Rain
4:23 PM 51.8 °F 50.0 °F 94% 30.15 in 1.8 mi South 4.6 mph - 0.09 in Rain Heavy Rain
4:37 PM 51.8 °F 50.0 °F 94% 30.16 in 2.5 mi Calm Calm - 0.13 in Rain Rain
4:47 PM 51.8 °F 50.0 °F 94% 30.15 in 4.0 mi SE 4.6 mph - 0.15 in Rain Rain
4:56 PM 51.1 °F 50.0 °F 96% 30.15 in 8.0 mi SSE 4.6 mph - 0.16 in Rain Light Rain
5:56 PM 52.0 °F 50.0 °F 93% 30.14 in 10.0 mi South 6.9 mph - 0.05 in Rain Light Rain
6:56 PM 53.1 °F 50.0 °F 89% 30.14 in 6.0 mi SSE 8.1 mph - 0.05 in Rain Light Rain
7:56 PM 53.1 °F 50.0 °F 89% 30.12 in 5.0 mi SSE 9.2 mph - 0.07 in Rain Rain
8:26 PM 53.6 °F 50.0 °F 88% 30.13 in 4.0 mi South 9.2 mph - 0.10 in Rain Rain
8:53 PM 53.6 °F 51.8 °F 94% 30.13 in 5.0 mi SSE 5.8 mph - 0.13 in Rain Light Rain
8:56 PM 53.1 °F 51.1 °F 93% 30.12 in 4.0 mi SSE 4.6 mph - 0.14 in Rain Rain
9:56 PM 53.1 °F 52.0 °F 96% 30.13 in 3.0 mi SE 4.6 mph - 0.16 in Rain Rain
10:56 PM 53.1 °F 52.0 °F 96% 30.12 in 8.0 mi South 4.6 mph - 0.06 in Rain Light Rain
11:56 PM 54.0 °F 52.0 °F 93% 30.11 in 10.0 mi SSE 5.8 mph - 0.02 in Rain Light Rain